User: anonymous   Login
Location: Fairmont
(43.6520°N, 94.4610°W)
Time: 22:40:01
(UTC-05:00)
Language:

Cosmos-2242 - Orbit

View from above orbital plane
View from above orbital plane
View from above satellite
View from above satellite

Ground track
Ground track

The orbit data is extracted from the following two-line orbital elements,

1 22626U 93024A   17177.55138408 +.00000191 +00000-0 +18112-4 0  9991
2 22626 082.5216 032.9944 0020662 089.7413 270.6172 14.87669769307247
Epoch (UTC): 26 June 2017 13:13:59
Eccentricity: 0.0020662
inclination: 82.5216°
perigee height: 591 km
apogee height: 619 km
right ascension of ascending node: 32.9944°
argument of perigee: 89.7413°
revolutions per day: 14.87669769
mean anomaly at epoch: 270.6172°
orbit number at epoch: 30724

The dashed part of the orbit path shows where the satellite is in the earth's shadow,  

DLR